Tracking 28790 objects as of 19-Apr-2024
HD Live streaming from Space Station
objects crossing your sky now

DMSP 5D-2 F10 (USA 68)

Track DMSP 5D-2 F10 (USA 68) now!
10-day predictions
DMSP 5D-2 F10 (USA 68) is classified as:


NORAD ID: 20978
Int'l Code: 1990-105A
Perigee: 716.5 km
Apogee: 821.4 km
Inclination: 98.7 °
Period: 100.1 minutes
Semi major axis: 7139 km
RCS: 4.2059 m2 (large)
Launch date: December 1, 1990
Source: United States (US)
Launch site: AIR FORCE WESTERN TEST RANGE (AFWTR)
Your satellite tracking list
Your tracking list is empty




NASA's NSSDC Master Catalog

Two Line Element Set (TLE):
1 20978U 90105A   24109.69676603  .00001156  00000-0  37734-3 0  9990
2 20978  98.7176 149.6404 0073504 116.4156 244.4598 14.39002654748916
Source of the keplerian elements: AFSPC